Orbital Elements at Epoch 2459200.5 (2020-Dec-17.0) TDB
Reference: JPL 22 (heliocentric ecliptic J2000)
Element | Value | Uncertainty (1-sigma) | Units |
e | .2666173634182382 | 5.0503e-08 | |
a | 2.2669566965778 | 9.055e-09 | au |
q | 1.662546679152908 | 1.1562e-07 | au |
i | 23.25666428075113 | 4.7464e-06 | deg |
node | 113.3620983698086 | 1.2821e-05 | deg |
peri | 268.5165728731965 | 1.4985e-05 | deg |
M | 20.84378105653662 | 7.3725e-06 | deg |
tp | 2459128.316611501755 (2020-Oct-05.81661150) | 2.5536e-05 | TDB |
period | 1246.703742899809 3.41 | 7.4697e-06 2.045e-08 | d yr |
n | .2887614656250627 | 1.7301e-09 | deg/d |
Q | 2.871366714002692 | 1.1469e-08 | au |
|
| | Orbit Determination Parameters
Additional Information
|